When you browse on this site, cookies collect data to enhance your experience and personalize the content and advertising you see.
Visit our Privacy Policy to learn more. By continuing to use the site, you agree to this use of cookies and data.
  • In United Kingdom
  • List of Countries
  • For 7 days
  • Water Temperature
  • Satellite Maps
  • Weather Map
  • Weather Widgets
  • user-avatar
    Login

    Hourly Weather Chakhansur

    Today, 24 March, Sunday

    Time Temperature Precipitation Wind Pressure Humidity
    00:00 +23°C° 0 mm 1 mps 719 mmHg 28%
    01:00 +21°C° 0 mm 2 mps 719 mmHg 28%
    02:00 +21°C° 0 mm 2 mps 719 mmHg 29%
    03:00 +21°C° 0 mm 2 mps 719 mmHg 29%
    04:00 +20°C° 0 mm 2 mps 719 mmHg 28%
    05:00 +20°C° 0 mm 2 mps 719 mmHg 28%
    06:00 +20°C° 0 mm 2 mps 719 mmHg 28%
    07:00 +20°C° 0 mm 2 mps 720 mmHg 29%
    08:00 +23°C° 0 mm 2 mps 720 mmHg 27%
    09:00 +24°C° 0 mm 3 mps 720 mmHg 26%
    10:00 +25°C° 0 mm 3 mps 719 mmHg 24%
    11:00 +26°C° 0 mm 3 mps 719 mmHg 23%
    12:00 +27°C° 0 mm 3 mps 719 mmHg 21%
    13:00 +28°C° 0 mm 4 mps 718 mmHg 20%
    14:00 +29°C° 0 mm 4 mps 718 mmHg 20%
    15:00 +29°C° 0 mm 4 mps 717 mmHg 20%
    16:00 +29°C° 0 mm 4 mps 717 mmHg 20%
    17:00 +29°C° 0 mm 4 mps 717 mmHg 22%
    18:00 +28°C° 0 mm 3 mps 717 mmHg 24%
    19:00 +27°C° 0 mm 3 mps 717 mmHg 27%
    20:00 +26°C° 0 mm 2 mps 717 mmHg 30%
    21:00 +26°C° 0 mm 2 mps 717 mmHg 34%
    22:00 +25°C° 0 mm 1 mps 717 mmHg 37%
    23:00 +25°C° 0 mm 1 mps 717 mmHg 38%

    Tomorrow, 25 March, Monday

    Time Temperature Precipitation Wind Pressure Humidity
    00:00 +24°C° 0 mm 1 mps 717 mmHg 40%
    01:00 +24°C° 0 mm 1 mps 717 mmHg 41%
    02:00 +23°C° 0 mm 2 mps 717 mmHg 42%
    03:00 +22°C° 0 mm 3 mps 717 mmHg 43%
    04:00 +22°C° 0 mm 3 mps 717 mmHg 44%
    05:00 +22°C° 0 mm 3 mps 717 mmHg 44%
    06:00 +22°C° 0 mm 3 mps 718 mmHg 45%
    07:00 +22°C° 0 mm 3 mps 718 mmHg 46%
    08:00 +23°C° 0 mm 4 mps 719 mmHg 41%
    09:00 +26°C° 0 mm 4 mps 719 mmHg 36%
    10:00 +28°C° 0 mm 4 mps 719 mmHg 31%
    11:00 +29°C° 0 mm 4 mps 719 mmHg 28%
    12:00 +30°C° 0 mm 5 mps 719 mmHg 26%
    13:00 +32°C° 0 mm 5 mps 719 mmHg 23%
    14:00 +32°C° 0 mm 4 mps 718 mmHg 22%
    15:00 +32°C° 0 mm 4 mps 718 mmHg 21%
    16:00 +31°C° 0 mm 3 mps 717 mmHg 20%
    17:00 +31°C° 0 mm 3 mps 717 mmHg 22%
    18:00 +30°C° 0 mm 3 mps 717 mmHg 23%
    19:00 +30°C° 0 mm 3 mps 717 mmHg 24%
    20:00 +29°C° 0 mm 3 mps 717 mmHg 24%
    21:00 +29°C° 0 mm 3 mps 717 mmHg 25%
    22:00 +28°C° 0 mm 4 mps 718 mmHg 26%
    23:00 +28°C° 0 mm 4 mps 717 mmHg 26%

    Day after tomorrow, 26 March, Tuesday

    Time Temperature Precipitation Wind Pressure Humidity
    00:00 +27°C° 0 mm 5 mps 717 mmHg 27%
    01:00 +27°C° 0 mm 5 mps 717 mmHg 27%
    02:00 +27°C° 0 mm 5 mps 717 mmHg 28%
    03:00 +27°C° 0 mm 5 mps 716 mmHg 29%
    04:00 +26°C° 0 mm 5 mps 716 mmHg 30%
    05:00 +27°C° 0 mm 5 mps 717 mmHg 30%
    06:00 +27°C° 0 mm 5 mps 717 mmHg 30%
    07:00 +27°C° 0 mm 5 mps 718 mmHg 30%
    08:00 +28°C° 0 mm 5 mps 718 mmHg 29%
    09:00 +30°C° 0 mm 6 mps 719 mmHg 28%
    10:00 +32°C° 0 mm 6 mps 719 mmHg 27%
    11:00 +32°C° 0 mm 5 mps 719 mmHg 27%
    12:00 +32°C° 0 mm 5 mps 719 mmHg 27%
    13:00 +33°C° 0 mm 4 mps 719 mmHg 28%
    14:00 +33°C° 0 mm 4 mps 718 mmHg 27%
    15:00 +33°C° 0 mm 3 mps 718 mmHg 27%
    16:00 +33°C° 0 mm 3 mps 717 mmHg 27%
    17:00 +31°C° 0 mm 2 mps 718 mmHg 29%
    18:00 +30°C° 0 mm 2 mps 718 mmHg 31%
    19:00 +30°C° 0 mm 2 mps 718 mmHg 33%
    20:00 +29°C° 0.2 mm 3 mps 718 mmHg 36%
    21:00 +28°C° 0.2 mm 3 mps 719 mmHg 40%
    22:00 +27°C° 0.2 mm 4 mps 719 mmHg 43%
    23:00 +27°C° 0 mm 5 mps 719 mmHg 44%

    27 March, Wednesday

    Time Temperature Precipitation Wind Pressure Humidity
    00:00 +27°C° 0 mm 5 mps 718 mmHg 44%
    01:00 +26°C° 0 mm 6 mps 718 mmHg 45%
    02:00 +26°C° 0 mm 5 mps 718 mmHg 46%
    03:00 +26°C° 0 mm 4 mps 718 mmHg 47%
    04:00 +26°C° 0 mm 3 mps 717 mmHg 47%
    05:00 +26°C° 0 mm 3 mps 718 mmHg 45%
    06:00 +26°C° 0 mm 4 mps 718 mmHg 43%
    07:00 +27°C° 0 mm 5 mps 718 mmHg 41%
    08:00 +28°C° 0 mm 6 mps 718 mmHg 35%
    09:00 +30°C° 0 mm 7 mps 718 mmHg 29%
    10:00 +33°C° 0 mm 8 mps 719 mmHg 23%
    11:00 +34°C° 0 mm 8 mps 718 mmHg 21%
    12:00 +35°C° 0 mm 8 mps 718 mmHg 19%
    13:00 +37°C° 0 mm 8 mps 718 mmHg 16%
    14:00 +35°C° 0 mm 9 mps 717 mmHg 17%
    15:00 +36°C° 0 mm 10 mps 717 mmHg 17%
    16:00 +36°C° 0 mm 12 mps 717 mmHg 18%
    17:00 +33°C° 0 mm 10 mps 717 mmHg 22%
    18:00 +32°C° 0 mm 9 mps 717 mmHg 26%
    19:00 +29°C° 0 mm 7 mps 718 mmHg 30%
    20:00 +28°C° 0 mm 7 mps 718 mmHg 33%
    21:00 +28°C° 0 mm 6 mps 718 mmHg 35%
    22:00 +27°C° 0 mm 5 mps 718 mmHg 37%
    23:00 +27°C° 0 mm 5 mps 718 mmHg 38%

    28 March, Thursday

    Time Temperature Precipitation Wind Pressure Humidity
    00:00 +26°C° 0 mm 4 mps 717 mmHg 40%
    01:00 +25°C° 0 mm 4 mps 717 mmHg 41%
    02:00 +25°C° 0 mm 4 mps 717 mmHg 42%
    03:00 +24°C° 0 mm 3 mps 717 mmHg 43%
    04:00 +24°C° 0 mm 3 mps 717 mmHg 44%
    05:00 +24°C° 0 mm 2 mps 718 mmHg 43%
    06:00 +24°C° 0 mm 1 mps 718 mmHg 43%
    07:00 +24°C° 0 mm 1 mps 719 mmHg 43%
    08:00 +26°C° 0 mm 1 mps 719 mmHg 36%
    09:00 +27°C° 0 mm 2 mps 720 mmHg 30%
    10:00 +29°C° 0 mm 3 mps 720 mmHg 23%
    11:00 +30°C° 0 mm 2 mps 719 mmHg 20%
    12:00 +30°C° 0 mm 2 mps 719 mmHg 16%
    13:00 +31°C° 0 mm 1 mps 718 mmHg 13%
    14:00 +31°C° 0 mm 1 mps 717 mmHg 12%
    15:00 +32°C° 0 mm 1 mps 717 mmHg 12%
    16:00 +32°C° 0 mm 1 mps 716 mmHg 11%
    17:00 +31°C° 0 mm 1 mps 716 mmHg 12%
    18:00 +31°C° 0 mm 1 mps 716 mmHg 13%
    19:00 +30°C° 0 mm 1 mps 716 mmHg 14%
    20:00 +30°C° 0 mm 2 mps 716 mmHg 15%
    21:00 +29°C° 0 mm 2 mps 716 mmHg 16%
    22:00 +28°C° 0 mm 2 mps 716 mmHg 16%
    23:00 +28°C° 0 mm 3 mps 716 mmHg 22%

    29 March, Friday

    Time Temperature Precipitation Wind Pressure Humidity
    00:00 +27°C° 0 mm 4 mps 715 mmHg 28%
    01:00 +27°C° 0 mm 6 mps 715 mmHg 34%
    02:00 +26°C° 0 mm 5 mps 715 mmHg 35%
    03:00 +25°C° 0 mm 5 mps 715 mmHg 37%
    04:00 +25°C° 0 mm 4 mps 715 mmHg 38%
    05:00 +25°C° 0 mm 4 mps 716 mmHg 38%
    06:00 +23°C° 0 mm 4 mps 716 mmHg 38%
    07:00 +23°C° 0 mm 4 mps 717 mmHg 38%
    08:00 +25°C° 0 mm 5 mps 717 mmHg 35%
    09:00 +27°C° 0 mm 5 mps 718 mmHg 32%
    10:00 +28°C° 0 mm 6 mps 718 mmHg 30%
    11:00 +29°C° 0 mm 6 mps 718 mmHg 24%
    12:00 +30°C° 0 mm 6 mps 718 mmHg 19%
    13:00 +32°C° 0 mm 6 mps 718 mmHg 13%
    14:00 +32°C° 0 mm 6 mps 718 mmHg 12%
    15:00 +33°C° 0 mm 7 mps 718 mmHg 10%
    16:00 +33°C° 0 mm 7 mps 717 mmHg 9%
    17:00 +32°C° 0 mm 6 mps 718 mmHg 10%
    18:00 +30°C° 0 mm 5 mps 718 mmHg 12%
    19:00 +28°C° 0 mm 3 mps 718 mmHg 13%
    20:00 +27°C° 0 mm 4 mps 718 mmHg 16%
    21:00 +26°C° 0 mm 4 mps 719 mmHg 20%
    22:00 +25°C° 0 mm 5 mps 719 mmHg 23%
    23:00 +24°C° 0 mm 6 mps 719 mmHg 26%
    Show more